Temp
-6 -7 -6 -6 -6 -6 -7 -6 -7 -6 -6 -5 -6 -6 -6 -6 -6 -5 -5 -5 -5 -5 -6 -6 -6 -6 -6 -6 -6 -6 -6 -6 -6 -6 -6 -6 -6 -6 -6 -6 -6 -5 -5 -5 -5 -5 -5 -6 -6
-6 -6 -6 -6 -6 -7 -6 -6 -7 -7 -8 -7 -6 -6 -7 -6 -6 -5 -6 -6 -6 -6 -6 -6 -6 -6 -6 -6 -7 -7 -7 -7 -7 -7 -7 -6 -6 -6 -6 -7 -6 -6 -6 -5 -6 -5 -5 -6 -6
-6 -6 -6 -5 -6 -6 -6 -7 -6 -6 -7 -7 -6 -7 -6 -5 -6 -6 -6 -6 -6 -6 -6 -6 -6 -6 -6 -6 -7 -7 -7 -7 -7 -7 -7 -6 -7 -7 -6 -6 -7 -6 -6 -6 -6 -6 -6 -6 -6
-6 -6 -6 -5 -5 -7 -6 -7 -7 -7 -7 -8 -7 -7 -6 -5 -6 -6 -6 -6 -7 -6 -6 -6 -6 -7 -6 -7 -7 -7 -7 -7 -7 -7 -8 -7 -7 -7 -7 -7 -7 -7 -6 -6 -6 -6 -6 -6 -6
-6 -7 -5 -6 -6 -6 -7 -7 -6 -8 -7 -8 -8 -8 -7 -6 -6 -6 -6 -6 -7 -7 -7 -7 -7 -7 -7 -7 -7 -7 -7 -7 -8 -8 -8 -8 -8 -8 -7 -7 -7 -7 -7 -6 -6 -6 -6 -6 -6
-7 -6 -6 -6 -7 -7 -8 -8 -7 -6 -6 -7 -7 -7 -7 -6 -7 -7 -7 -6 -6 -7 -7 -7 -7 -7 -7 -7 -7 -7 -7 -8 -8 -8 -8 -8 -8 -8 -8 -7 -7 -7 -7 -6 -7 -7 -6 -6 -6
-7 -6 -6 -7 -8 -7 -8 -8 -7 -6 -7 -8 -8 -8 -6 -6 -7 -7 -7 -7 -7 -7 -7 -7 -7 -7 -7 -7 -7 -7 -7 -7 -8 -8 -8 -8 -8 -8 -8 -7 -7 -7 -7 -7 -7 -7 -7 -6 -6
-6 -5 -7 -8 -7 -8 -8 -8 -8 -8 -7 -8 -8 -8 -6 -6 -7 -7 -7 -7 -7 -7 -7 -7 -7 -7 -7 -7 -7 -7 -7 -7 -8 -8 -8 -8 -8 -8 -8 -8 -7 -7 -7 -7 -7 -7 -7 -7 -6
-5 -6 -6 -5 -6 -8 -7 -8 -8 -8 -7 -7 -8 -7 -7 -7 -7 -7 -7 -6 -7 -7 -7 -7 -7 -7 -7 -7 -7 -8 -7 -8 -8 -8 -8 -8 -9 -8 -8 -8 -8 -7 -7 -8 -7 -8 -7 -7 -7
-6 -6 -6 -7 -7 -8 -8 -8 -8 -7 -7 -7 -8 -7 -7 -8 -7 -7 -7 -6 -7 -7 -7 -7 -7 -7 -7 -7 -7 -8 -8 -8 -8 -8 -9 -8 -9 -9 -9 -9 -8 -7 -7 -7 -8 -8 -7 -7 -7
-6 -5 -7 -7 -7 -7 -8 -8 -8 -8 -6 -6 -7 -7 -7 -8 -8 -7 -7 -7 -7 -7 -7 -7 -7 -7 -7 -7 -7 -8 -8 -8 -9 -8 -8 -9 -9 -8 -8 -8 -8 -7 -8 -7 -7 -8 -8 -7 -8
-5 -6 -7 -8 -7 -8 -8 -8 -7 -6 -6 -6 -6 -6 -7 -7 -8 -8 -8 -8 -7 -7 -7 -7 -7 -7 -7 -8 -8 -8 -8 -8 -8 -8 -8 -8 -9 -9 -8 -8 -8 -8 -8 -8 -7 -8 -8 -8 -7
-5 -7 -7 -7 -8 -7 -8 -7 -7 -7 -7 -7 -7 -7 -7 -7 -7 -7 -7 -8 -8 -8 -7 -7 -8 -7 -7 -8 -8 -8 -8 -8 -8 -8 -8 -8 -8 -8 -9 -9 -8 -8 -8 -7 -8 -7 -8 -8 -8
-6 -6 -6 -7 -7 -8 -8 -8 -8 -8 -8 -7 -7 -7 -7 -7 -7 -7 -7 -8 -7 -7 -7 -7 -7 -8 -8 -8 -8 -8 -8 -8 -8 -9 -9 -8 -8 -8 -9 -8 -8 -8 -8 -8 -8 -7 -8 -8 -8
-5 -6 -6 -7 -7 -7 -8 -7 -8 -8 -8 -7 -7 -6 -7 -7 -7 -7 -7 -8 -8 -7 -7 -6 -6 -7 -7 -8 -8 -8 -8 -8 -8 -8 -8 -9 -8 -8 -8 -8 -9 -8 -7 -8 -7 -8 -7 -7 -8
-5 -6 -7 -7 -7 -7 -8 -8 -8 -7 -8 -6 -8 -8 -7 -8 -8 -8 -8 -8 -8 -8 -7 -7 -6 -7 -7 -7 -7 -7 -8 -8 -8 -9 -9 -9 -9 -9 -8 -8 -8 -8 -8 -8 -8 -8 -7 -7 -7
-6 -7 -8 -7 -7 -6 -7 -8 -8 -8 -6 -7 -8 -8 -7 -8 -8 -8 -8 -8 -8 -8 -8 -8 -7 -7 -7 -7 -8 -8 -8 -8 -8 -8 -9 -10 -9 -9 -9 -9 -9 -8 -8 -8 -8 -8 -8 -8 -8
-6 -8 -8 -7 -7 -7 -7 -7 -8 -8 -7 -8 -8 -7 -7 -8 -9 -9 -7 -7 -7 -7 -7 -7 -8 -8 -8 -7 -8 -8 -9 -9 -9 -8 -9 -9 -9 -9 -9 -9 -9 -8 -8 -8 -8 -9 -8 -8 -8
-6 -7 -9 -8 -8 -8 -7 -7 -7 -8 -8 -9 -9 -7 -8 -7 -8 -9 -8 -7 -8 -9 -8 -8 -8 -8 -8 -7 -8 -8 -9 -8 -9 -9 -9 -8 -9 -9 -9 -9 -9 -8 -8 -9 -8 -9 -8 -8 -8
-6 -6 -7 -8 -8 -8 -9 -7 -8 -8 -8 -8 -9 -8 -8 -8 -9 -9 -8 -8 -8 -8 -9 -9 -9 -9 -8 -7 -7 -8 -8 -8 -8 -8 -8 -8 -9 -8 -8 -9 -8 -8 -8 -9 -8 -9 -8 -8 -8
-6 -6 -6 -7 -8 -8 -8 -8 -8 -8 -8 -8 -8 -8 -7 -6 -9 -9 -7 -8 -7 -7 -8 -7 -8 -8 -8 -8 -7 -8 -8 -8 -8 -8 -8 -7 -8 -7 -8 -8 -8 -8 -8 -8 -8 -8 -8 -8 -8
-6 -7 -7 -7 -7 -7 -8 -7 -8 -8 -8 -8 -8 -8 -8 -8 -8 -9 -9 -8 -7 -8 -7 -8 -8 -9 -8 -7 -8 -8 -8 -9 -8 -8 -8 -8 -7 -8 -7 -8 -8 -8 -8 -8 -8 -8 -8 -8 -8
-7 -7 -7 -7 -7 -7 -7 -7 -8 -8 -8 -8 -8 -8 -7 -8 -8 -9 -10 -8 -7 -8 -8 -9 -9 -9 -8 -7 -8 -8 -8 -8 -8 -8 -8 -8 -8 -8 -8 -8 -8 -8 -8 -8 -8 -8 -8 -8 -8
-7 -7 -7 -7 -7 -7 -8 -8 -8 -8 -9 -9 -8 -7 -7 -7 -8 -8 -8 -8 -8 -8 -8 -8 -8 -8 -8 -8 -8 -8 -9 -7 -8 -8 -8 -8 -8 -8 -8 -8 -8 -8 -8 -8 -8 -8 -8 -8 -7
-7 -7 -7 -6 -7 -7 -8 -8 -8 -9 -10 -9 -8 -8 -8 -9 -8 -9 -9 -8 -8 -8 -8 -8 -8 -8 -8 -8 -8 -8 -9 -8 -8 -8 -8 -8 -8 -8 -8 -8 -8 -8 -8 -8 -9 -8 -8 -8 -8
-8 -7 -7 -7 -7 -9 -9 -8 -9 -7 -8 -9 -9 -9 -9 -8 -9 -9 -9 -8 -8 -9 -8 -8 -8 -8 -8 -8 -8 -8 -9 -8 -8 -8 -8 -8 -8 -8 -8 -8 -8 -8 -8 -8 -8 -8 -8 -7 -7
-8 -7 -7 -7 -8 -8 -8 -8 -9 -9 -8 -9 -9 -9 -8 -8 -9 -9 -8 -8 -8 -8 -8 -8 -8 -8 -9 -8 -8 -9 -9 -9 -8 -8 -8 -8 -8 -8 -8 -8 -8 -8 -8 -8 -8 -8 -8 -8 -8
-8 -8 -8 -8 -8 -8 -8 -9 -9 -9 -9 -9 -9 -8 -9 -8 -9 -9 -9 -8 -8 -8 -8 -8 -8 -8 -8 -9 -9 -9 -9 -8 -8 -8 -8 -8 -8 -8 -8 -8 -8 -8 -8 -8 -8 -8 -8 -8 -8
-9 -8 -9 -8 -9 -9 -9 -9 -9 -9 -8 -8 -9 -8 -8 -9 -9 -9 -9 -9 -9 -8 -8 -9 -8 -8 -8 -9 -9 -9 -9 -9 -8 -8 -8 -8 -8 -8 -8 -8 -8 -8 -8 -8 -8 -8 -8 -8 -8
-9 -9 -8 -9 -8 -9 -9 -10 -9 -9 -8 -8 -8 -9 -8 -10 -9 -9 -8 -9 -9 -9 -8 -9 -9 -8 -8 -9 -9 -9 -9 -9 -9 -8 -8 -8 -8 -8 -8 -8 -8 -8 -8 -8 -8 -8 -8 -8 -8
Height
5908 5911 5912 5912 5914 5908 5910 5910 5909 5905 5904 5902 5904 5903 5901 5897 5896 5896 5897 5895 5896 5896 5896 5897 5897 5899 5900 5901 5902 5904 5905 5907 5908 5908 5908 5908 5909 5908 5908 5909 5910 5911 5913 5913 5914 5915 5917 5916 5918
5909 5911 5911 5908 5912 5909 5910 5914 5913 5907 5902 5900 5901 5901 5900 5898 5895 5894 5897 5894 5891 5894 5896 5896 5896 5897 5898 5899 5900 5902 5904 5905 5906 5907 5908 5908 5909 5909 5909 5910 5911 5911 5913 5913 5915 5914 5916 5917 5918
5908 5916 5915 5912 5910 5908 5906 5912 5913 5906 5905 5905 5905 5903 5904 5898 5896 5893 5893 5890 5895 5893 5895 5895 5896 5897 5897 5898 5899 5901 5902 5903 5904 5905 5906 5907 5908 5909 5908 5910 5911 5911 5913 5915 5915 5915 5915 5917 5917
5909 5913 5915 5912 5911 5908 5906 5905 5911 5904 5904 5906 5905 5907 5905 5900 5895 5893 5890 5891 5896 5892 5892 5894 5895 5895 5896 5897 5898 5899 5900 5901 5902 5903 5904 5905 5906 5907 5908 5908 5910 5911 5912 5915 5915 5915 5915 5917 5919
5909 5911 5909 5910 5910 5908 5907 5903 5900 5901 5897 5899 5904 5903 5903 5899 5896 5893 5895 5892 5889 5888 5893 5894 5895 5895 5895 5895 5896 5897 5898 5899 5900 5902 5902 5903 5904 5905 5906 5907 5909 5910 5912 5914 5915 5915 5915 5917 5919
5911 5911 5913 5911 5912 5913 5909 5905 5897 5904 5903 5904 5907 5905 5901 5902 5901 5897 5897 5894 5894 5894 5893 5893 5894 5894 5894 5894 5895 5896 5897 5897 5899 5899 5899 5900 5901 5903 5905 5906 5907 5909 5910 5912 5914 5915 5915 5917 5919
5909 5909 5907 5903 5908 5910 5914 5917 5906 5904 5906 5905 5902 5903 5904 5903 5900 5897 5898 5896 5894 5894 5892 5892 5891 5892 5893 5894 5894 5895 5896 5896 5896 5896 5897 5898 5899 5901 5902 5904 5906 5907 5908 5911 5912 5914 5915 5916 5919
5906 5911 5910 5910 5915 5914 5911 5916 5914 5909 5907 5906 5905 5908 5905 5898 5896 5893 5895 5897 5893 5892 5891 5890 5889 5890 5891 5892 5893 5894 5895 5894 5893 5894 5895 5896 5898 5900 5902 5904 5905 5905 5906 5908 5910 5911 5914 5916 5917
5910 5912 5913 5915 5917 5913 5908 5915 5912 5911 5907 5902 5907 5906 5901 5897 5893 5892 5894 5894 5892 5890 5889 5886 5886 5887 5889 5890 5891 5893 5893 5893 5892 5891 5891 5893 5896 5898 5900 5900 5903 5905 5905 5907 5908 5910 5912 5914 5916
5913 5911 5914 5916 5917 5916 5916 5912 5910 5909 5911 5905 5906 5905 5900 5896 5894 5893 5893 5892 5888 5889 5885 5884 5883 5885 5887 5888 5889 5890 5889 5889 5888 5888 5889 5889 5891 5893 5896 5898 5899 5902 5904 5906 5907 5907 5909 5911 5913
5913 5912 5911 5914 5915 5915 5915 5913 5909 5906 5908 5907 5904 5900 5897 5898 5897 5893 5890 5888 5887 5883 5884 5883 5882 5883 5885 5885 5886 5886 5886 5884 5883 5883 5884 5885 5886 5888 5890 5889 5892 5897 5901 5904 5905 5906 5907 5908 5911
5910 5909 5909 5913 5912 5914 5914 5914 5909 5907 5907 5907 5904 5900 5898 5896 5893 5892 5890 5888 5885 5882 5881 5880 5879 5880 5882 5882 5882 5881 5880 5881 5882 5885 5885 5884 5883 5884 5887 5887 5890 5894 5897 5900 5904 5904 5905 5906 5908
5909 5909 5910 5912 5912 5914 5914 5912 5910 5906 5903 5904 5903 5898 5896 5893 5891 5889 5889 5887 5886 5884 5881 5878 5875 5877 5878 5878 5877 5876 5876 5878 5882 5884 5885 5885 5883 5882 5883 5884 5887 5889 5892 5896 5900 5901 5903 5904 5906
5912 5910 5909 5913 5913 5912 5910 5911 5911 5904 5902 5899 5897 5893 5890 5889 5886 5884 5884 5886 5884 5882 5879 5875 5874 5875 5876 5876 5874 5874 5875 5877 5878 5878 5878 5878 5878 5877 5879 5881 5883 5885 5885 5890 5895 5898 5900 5902 5904
5909 5910 5911 5906 5908 5909 5905 5907 5910 5907 5896 5893 5888 5883 5883 5883 5883 5883 5882 5880 5880 5879 5877 5876 5874 5874 5876 5875 5872 5871 5871 5874 5874 5873 5873 5872 5873 5873 5873 5876 5876 5880 5882 5884 5889 5893 5896 5899 5901
5908 5910 5908 5907 5908 5906 5905 5906 5905 5902 5895 5884 5857 5885 5880 5882 5881 5881 5881 5881 5880 5879 5877 5876 5874 5872 5871 5872 5871 5870 5869 5869 5869 5869 5868 5866 5866 5866 5869 5871 5872 5875 5878 5878 5882 5887 5891 5895 5898
5907 5906 5903 5906 5901 5905 5903 5902 5900 5896 5893 5886 5882 5878 5881 5883 5881 5878 5877 5876 5877 5877 5877 5876 5874 5873 5870 5868 5865 5861 5860 5859 5860 5861 5860 5858 5857 5861 5863 5866 5867 5871 5873 5875 5876 5880 5884 5888 5893
5905 5901 5896 5901 5902 5904 5902 5900 5897 5895 5888 5887 5872 5855 5877 5878 5879 5879 5876 5874 5873 5875 5875 5875 5874 5872 5870 5867 5864 5861 5857 5855 5854 5854 5854 5853 5852 5851 5856 5860 5863 5866 5868 5870 5871 5874 5878 5883 5888
5902 5901 5899 5901 5900 5902 5900 5898 5897 5893 5891 5876 5877 5877 5881 5875 5875 5874 5879 5873 5871 5868 5872 5872 5870 5869 5868 5866 5863 5859 5856 5851 5846 5842 5841 5842 5844 5846 5848 5851 5857 5860 5862 5864 5867 5869 5873 5878 5882
5899 5900 5899 5899 5900 5900 5897 5898 5895 5894 5893 5895 5884 5874 5874 5867 5869 5873 5864 5861 5870 5869 5869 5869 5867 5865 5863 5862 5858 5854 5851 5845 5838 5833 5832 5833 5834 5835 5840 5846 5850 5854 5857 5859 5861 5863 5868 5873 5877
5896 5896 5897 5898 5898 5898 5897 5894 5893 5893 5893 5888 5881 5869 5869 5861 5863 5871 5854 5850 5863 5865 5867 5866 5863 5861 5861 5858 5853 5848 5843 5836 5830 5827 5827 5826 5828 5828 5833 5837 5842 5847 5852 5854 5856 5858 5863 5868 5872
5893 5893 5894 5893 5894 5893 5894 5889 5890 5888 5887 5888 5887 5885 5877 5856 5846 5865 5866 5869 5861 5864 5864 5863 5858 5859 5858 5854 5850 5844 5838 5832 5826 5823 5822 5821 5822 5823 5827 5832 5835 5841 5846 5850 5852 5855 5860 5863 5868
5890 5889 5889 5889 5888 5888 5890 5886 5881 5884 5884 5883 5880 5880 5875 5872 5866 5865 5867 5864 5861 5864 5862 5860 5858 5858 5855 5849 5844 5838 5832 5825 5823 5820 5819 5818 5817 5820 5823 5827 5830 5835 5839 5843 5847 5851 5853 5858 5861
5885 5886 5886 5885 5885 5884 5882 5880 5878 5881 5880 5876 5876 5873 5871 5864 5863 5865 5864 5862 5863 5863 5861 5858 5857 5856 5852 5846 5841 5835 5827 5822 5820 5820 5819 5817 5816 5818 5821 5824 5826 5829 5832 5836 5841 5846 5850 5852 5855
5881 5882 5882 5881 5881 5881 5880 5880 5876 5878 5878 5875 5867 5870 5869 5870 5867 5864 5863 5862 5863 5862 5860 5858 5856 5854 5849 5845 5840 5834 5826 5822 5820 5819 5818 5816 5816 5817 5818 5820 5822 5823 5826 5831 5837 5842 5844 5847 5850
5876 5877 5877 5876 5877 5877 5876 5877 5871 5871 5868 5873 5869 5871 5874 5875 5871 5867 5864 5864 5862 5861 5859 5858 5854 5850 5847 5844 5840 5833 5826 5821 5821 5819 5816 5816 5817 5816 5817 5819 5820 5821 5824 5829 5833 5837 5840 5844 5848
5874 5870 5874 5872 5873 5871 5872 5874 5872 5866 5867 5869 5868 5870 5874 5874 5870 5866 5865 5864 5862 5860 5857 5854 5850 5846 5845 5843 5840 5833 5829 5823 5822 5820 5818 5817 5816 5816 5816 5818 5819 5820 5823 5824 5829 5832 5835 5838 5844
5867 5871 5868 5869 5868 5868 5870 5868 5870 5867 5863 5869 5860 5860 5866 5867 5865 5863 5862 5862 5859 5857 5855 5852 5848 5844 5843 5842 5840 5835 5831 5827 5824 5820 5819 5818 5817 5816 5816 5817 5817 5818 5820 5823 5825 5829 5832 5835 5840
5863 5865 5864 5864 5864 5865 5868 5869 5863 5863 5862 5863 5859 5857 5857 5859 5860 5859 5859 5859 5857 5855 5853 5850 5845 5844 5844 5842 5841 5836 5833 5830 5826 5823 5821 5819 5818 5817 5816 5817 5816 5817 5818 5821 5824 5827 5830 5831 5834
5859 5861 5859 5858 5862 5863 5865 5863 5858 5857 5852 5853 5854 5854 5847 5855 5855 5856 5854 5855 5855 5851 5850 5850 5849 5847 5844 5843 5840 5836 5833 5831 5828 5825 5822 5820 5818 5816 5816 5815 5816 5817 5818 5820 5822 5824 5826 5827 5829
Wind_Speed
12 16 12 11 15 18 15 12 22 18 17 13 15 11 10 13 14 10 10 6 8 8 7 7 7 9 9 11 11 12 12 12 13 12 10 9 8 6 6 9 11 11 13 14 14 14 13 12 10
14 14 20 18 9 17 12 13 16 11 18 11 8 8 9 6 10 11 13 10 9 6 8 8 10 11 11 12 12 13 14 14 13 11 15 16 13 7 5 7 10 11 12 14 15 16 15 13 11
6 13 16 16 12 17 19 21 20 12 15 14 27 19 11 8 8 10 7 8 9 5 7 8 9 11 11 10 10 11 12 13 13 11 10 12 13 11 8 7 8 11 12 13 15 17 17 15 13
8 7 2 12 7 11 16 11 23 14 11 11 25 24 16 16 13 10 7 7 5 3 5 8 9 10 10 9 9 9 10 11 12 12 11 12 14 14 11 8 7 9 12 13 16 18 18 16 14
5 6 11 12 10 16 18 11 12 18 21 5 14 20 9 18 14 13 9 4 8 5 7 8 8 8 9 8 7 7 8 9 11 12 12 11 15 16 14 10 8 9 12 12 14 16 18 17 16
9 8 16 15 6 15 16 15 22 19 29 30 31 18 19 15 13 9 9 6 5 9 8 8 8 8 8 8 7 8 9 7 8 10 11 9 15 17 16 12 11 10 11 15 13 15 17 17 16
11 5 18 18 19 12 16 7 17 23 26 31 22 23 10 13 17 12 8 9 8 4 7 9 10 12 11 10 8 9 10 10 11 10 10 9 11 15 19 17 14 12 12 15 15 15 14 16 16
8 7 21 25 17 23 19 18 23 18 19 21 25 26 20 21 22 18 15 10 8 7 5 10 10 12 14 13 12 10 9 8 11 11 10 8 8 10 15 18 17 14 13 15 17 14 14 14 15
7 15 11 11 9 16 19 19 14 20 19 24 17 18 19 22 21 20 17 14 6 7 4 7 9 12 13 14 14 11 10 9 8 9 6 7 9 8 12 19 18 15 14 16 18 15 16 14 14
10 12 9 12 12 8 8 14 23 15 18 21 18 16 18 21 20 17 16 14 13 9 6 6 8 9 10 12 13 12 11 12 12 10 9 3 13 10 13 18 28 19 16 17 17 19 19 17 14
12 13 14 11 12 10 7 14 21 18 20 20 14 15 16 15 17 18 17 14 13 13 10 8 6 8 8 10 10 13 15 17 16 14 14 13 18 18 14 17 28 30 21 18 18 20 21 22 16
6 11 13 8 12 8 8 14 16 20 19 19 17 13 13 11 13 17 16 13 14 13 13 11 7 7 6 10 10 13 17 17 18 17 15 13 13 13 11 7 20 33 30 20 22 22 23 19 19
5 5 5 3 3 7 2 12 18 22 21 23 16 13 12 10 10 12 14 11 11 12 12 10 9 8 4 6 10 12 16 17 16 17 18 18 14 14 10 10 17 19 30 29 24 25 25 21 19
3 1 3 4 5 3 5 10 19 23 28 25 16 10 9 10 11 14 13 10 9 13 16 15 11 8 3 4 10 13 15 15 15 15 19 21 19 15 16 15 19 23 19 38 29 26 25 22 21
7 4 3 10 10 4 11 12 18 21 32 21 16 11 10 8 9 10 11 12 12 14 16 17 17 10 4 2 4 5 8 12 16 14 15 16 19 17 16 17 17 18 19 32 33 33 30 28 22
9 10 10 13 14 6 12 10 15 24 34 27 26 4 7 5 4 8 10 10 12 14 16 18 19 18 17 13 10 10 11 9 9 13 15 18 19 16 16 16 16 18 19 21 35 37 34 32 27
9 8 16 16 7 4 11 11 17 31 27 23 15 24 11 7 5 8 11 10 11 14 15 15 18 18 18 17 16 18 19 18 16 18 19 21 23 22 19 19 17 18 17 17 26 39 38 34 32
10 7 28 23 19 15 13 13 13 25 31 30 32 11 2 5 2 10 13 12 13 13 15 15 17 16 17 17 17 18 20 21 21 24 25 25 29 28 26 24 22 21 18 18 19 36 40 37 33
10 6 17 15 9 17 18 8 18 22 27 30 39 31 32 4 5 14 13 15 11 19 22 21 25 25 17 17 18 20 24 26 29 30 24 26 28 32 29 26 25 22 20 20 21 33 37 37 31
12 12 14 13 9 14 19 15 18 17 19 24 33 36 26 12 15 16 19 11 9 17 20 21 28 23 20 20 22 23 26 31 28 19 20 21 27 33 30 30 27 26 24 22 21 28 36 37 34
14 15 14 17 10 15 16 22 16 17 22 28 31 42 31 12 17 22 20 16 10 22 24 22 21 19 20 23 21 26 28 32 24 17 16 16 18 23 29 28 29 29 26 22 21 22 35 36 37
14 15 16 17 18 20 16 22 20 19 23 26 28 29 25 38 16 26 26 24 16 22 21 21 19 19 19 22 24 26 28 28 20 18 16 17 14 18 21 24 24 27 29 25 22 24 32 36 36
12 16 18 18 19 20 17 22 24 21 25 27 30 28 30 30 23 22 22 23 22 19 21 15 16 21 26 25 26 29 35 26 16 12 12 13 13 13 19 21 21 22 27 28 25 26 26 29 33
15 17 19 17 17 20 5 11 15 17 27 30 27 26 29 26 21 16 19 24 20 18 18 20 19 22 28 23 25 29 41 21 14 13 12 9 8 9 15 19 21 22 27 30 26 24 24 30 31
17 16 18 19 16 6 11 9 24 22 29 18 26 27 29 28 15 15 17 16 17 16 18 21 23 25 19 21 22 29 39 18 14 14 10 7 6 8 10 13 17 18 25 27 26 23 25 27 29
21 19 19 19 12 9 18 12 26 22 16 11 24 24 22 22 8 8 11 9 16 17 19 21 25 24 19 16 19 26 31 26 13 17 7 6 4 4 6 8 11 16 21 23 24 24 24 22 26
14 24 15 17 15 22 25 17 25 28 13 13 24 26 16 12 8 9 10 9 16 16 19 22 27 21 11 11 16 21 26 26 12 12 7 6 7 5 3 6 10 13 18 21 21 22 25 24 26
18 17 22 19 17 19 26 21 28 26 10 16 26 28 15 13 10 15 14 11 16 19 20 23 23 12 5 12 14 17 19 25 29 14 5 4 4 2 3 5 6 9 13 14 18 21 22 25 28
28 15 24 24 17 7 7 17 26 28 9 16 27 26 20 10 9 10 14 13 18 19 21 21 18 6 7 16 15 19 19 20 21 24 17 4 6 5 1 2 4 6 7 12 14 17 20 24 23
28 24 22 20 21 19 22 25 28 28 31 31 35 40 22 10 9 10 12 17 17 20 19 13 11 11 12 15 16 20 20 19 18 16 14 16 11 8 6 5 1 0 4 8 11 14 21 21 24
Wind_Direction
121 107 125 105 127 73 91 20 10 10 31 16 49 31 11 352 351 355 353 302 294 286 280 256 258 234 226 228 223 233 234 240 244 238 227 235 245 246 247 211 210 210 200 188 184 181 183 177 167
129 124 148 102 87 110 123 34 6 21 1 12 45 33 15 349 336 337 342 332 278 253 263 260 249 243 238 237 234 234 238 244 247 246 249 244 241 239 229 221 214 214 214 196 191 180 181 183 175
148 95 90 106 131 116 95 8 354 339 357 351 359 337 360 34 24 1 346 306 309 272 249 247 256 246 247 250 248 243 245 243 249 248 237 235 226 221 221 222 225 209 218 212 195 188 180 185 179
72 88 66 82 103 75 64 38 334 327 344 353 25 44 8 7 25 22 355 342 304 272 271 260 252 249 256 252 252 255 252 249 247 245 241 229 219 208 213 209 220 210 204 217 206 198 185 188 182
92 55 16 142 115 85 54 36 246 330 317 15 78 25 3 2 14 9 17 340 311 322 262 258 256 251 252 261 275 277 267 259 255 258 254 240 223 216 212 207 209 215 210 211 215 202 197 192 194
150 101 103 132 71 87 71 318 348 319 333 344 351 35 40 11 11 5 347 333 289 261 269 262 266 262 264 271 282 294 306 290 263 263 260 257 225 219 215 213 211 211 211 208 215 204 199 196 202
196 215 343 104 88 78 90 351 316 329 353 349 343 6 21 13 21 22 11 356 319 315 280 264 259 259 266 271 272 293 303 302 286 275 259 249 226 223 220 216 224 212 205 210 211 208 205 199 204
268 341 21 65 63 59 45 12 340 332 346 344 350 341 1 16 20 12 12 356 336 339 286 265 259 259 260 265 268 273 277 287 272 277 275 251 236 230 222 220 227 215 209 210 209 207 211 209 204
9 66 62 47 54 56 36 1 315 326 349 345 347 350 8 11 21 9 6 356 13 328 296 256 261 257 260 263 269 270 272 271 270 264 277 237 222 233 240 231 231 230 218 215 209 209 211 210 208
78 104 100 68 36 44 87 297 305 351 328 340 346 336 10 13 14 9 359 5 6 7 343 310 263 257 255 264 264 264 255 258 249 253 242 246 210 210 253 246 231 223 231 223 215 209 215 210 213
100 114 89 58 18 4 46 302 318 311 321 335 319 326 359 9 10 6 3 5 8 6 3 347 298 271 269 266 266 259 250 249 240 237 225 231 221 254 286 295 221 224 224 222 221 224 224 205 218
16 64 89 71 352 325 353 327 330 339 308 333 317 324 343 345 5 9 358 5 1 354 341 329 328 324 294 272 267 250 253 247 248 241 239 217 218 235 274 294 217 220 225 219 229 226 224 211 219
112 58 27 36 329 294 304 320 340 334 327 320 316 318 326 338 343 7 4 357 359 359 349 328 317 302 293 263 254 243 246 258 262 266 258 251 238 248 253 255 213 225 224 223 226 231 229 219 223
266 176 175 303 281 306 303 304 323 319 317 316 289 280 299 338 344 356 353 347 353 358 357 355 348 345 339 252 259 257 253 256 258 266 252 243 252 251 258 244 234 241 265 224 229 224 226 223 222
256 219 263 234 215 219 269 324 312 309 303 305 293 289 289 331 332 337 341 336 343 352 358 352 348 350 27 36 294 284 271 253 250 255 258 250 253 250 250 258 251 253 262 220 219 218 226 228 219
291 305 252 263 239 244 271 316 295 326 327 293 241 294 320 341 330 333 336 333 327 338 339 341 343 342 340 346 334 312 302 292 276 270 263 252 249 251 251 255 250 244 245 226 226 216 221 227 225
291 293 295 284 223 335 299 321 319 313 327 294 315 294 296 333 346 323 317 324 327 315 321 328 335 338 335 337 343 335 325 314 301 288 275 265 259 248 246 248 250 251 250 242 235 217 219 222 227
255 305 317 353 4 346 337 328 301 302 312 309 328 30 55 268 69 343 302 309 312 320 327 332 335 332 325 334 343 340 328 316 307 299 279 263 258 253 243 243 244 246 246 244 234 217 218 218 219
283 259 302 301 347 311 312 338 289 297 315 318 310 310 307 308 312 356 303 284 315 344 333 322 330 328 318 320 334 334 332 320 311 302 276 255 246 245 241 239 239 241 241 242 235 224 217 220 224
285 279 273 281 290 299 302 305 305 317 332 320 311 311 302 6 354 308 283 234 20 8 340 319 321 312 314 314 316 325 330 327 316 290 276 265 251 239 240 237 239 236 237 239 245 234 219 219 224
281 284 280 278 245 260 275 298 322 303 310 302 304 307 323 295 351 321 340 351 315 360 348 310 321 327 320 328 328 330 336 335 327 304 278 279 250 238 234 235 239 228 230 236 239 226 218 220 227
280 273 271 269 272 273 254 280 266 269 279 296 311 300 328 321 15 343 337 330 343 345 329 340 341 332 321 332 332 341 342 341 327 313 286 278 259 244 239 227 231 226 230 230 232 229 219 222 233
270 262 266 275 289 293 295 282 278 287 308 302 298 322 330 332 332 338 331 338 340 333 338 335 343 317 329 326 339 346 348 345 333 330 315 293 267 232 217 223 232 237 229 223 229 223 229 229 232
257 259 272 280 288 294 257 264 281 276 292 288 310 328 333 338 339 328 339 337 335 327 342 346 334 318 327 336 344 347 1 352 343 337 325 306 270 231 220 229 239 237 223 219 225 224 229 230 237
259 264 272 281 296 268 312 294 288 267 275 290 316 332 342 330 327 343 338 344 346 357 344 342 340 331 333 336 349 359 4 349 337 325 325 324 286 262 244 238 231 224 214 218 223 228 230 233 236
263 262 263 280 268 288 257 305 300 280 190 280 296 312 319 322 313 341 346 332 342 348 347 338 336 333 331 339 357 13 8 356 348 338 318 335 309 287 255 230 221 215 217 222 228 232 231 228 223
285 263 263 273 258 240 248 283 279 280 218 256 273 283 323 312 349 346 2 5 348 341 343 336 334 325 330 348 355 17 21 18 341 353 2 342 327 317 256 225 226 224 219 220 226 226 226 220 216
277 254 253 260 273 261 240 266 278 271 214 266 281 281 313 309 331 348 344 353 355 345 345 342 336 353 26 16 358 16 19 26 19 4 356 2 343 334 246 221 232 234 231 224 224 224 229 228 227
274 269 251 257 251 273 245 287 286 290 256 255 263 267 280 271 297 323 325 341 351 345 351 356 4 69 47 14 5 14 4 11 21 24 6 26 8 355 60 246 186 221 220 208 217 223 223 228 224
267 280 268 247 247 225 249 273 284 298 305 302 297 292 231 240 274 301 325 330 337 344 348 350 27 44 13 358 2 5 359 358 6 12 21 25 17 323 311 356 121 69 197 221 218 227 228 225 229